Tracking 27107 objects as of 21-Mar-2023
HD Live streaming from Space Station
objects crossing your sky now

CZ-3C DEB

Track CZ-3C DEB now!


NORAD ID: 39352
Int'l Code: 2010-057S
Perigee: 662.1 km
Apogee: 36,844.0 km
Inclination: 20.4 °
Period: 660.5 minutes
Semi major axis: 25124 km
RCS: 0.6339 m2 (medium)
Launch date: October 31, 2010
Source: People's Republic of China (PRC)
Launch site: Xichang Space Center, China (XSC)

Note: This is SATELLITE DEBRIS
Your satellite tracking list
Your tracking list is empty




NASA's NSSDC Master Catalog

Two Line Element Set (TLE):
1 39352U 10057S   23078.09146521 -.00000139  00000-0 -11807-2 0  9997
2 39352  20.3607 198.0524 7200645  36.3920  79.7808  2.18005853 75135
Source of the keplerian elements: AFSPC